Terminal Aerodrome Forecast
Issued by NWS Aberdeen, SD

Home | Current Version | Previous Version | Text Only | Print | Product List | Glossary On
Versions: 1 2 3 4 5 6 7 8 9 10 11 12 13 14 15 16 17 18 19 20 21 22 23 24 25 26 27 28 29 30 31 32 33 34 35 36 37 38 39 40 41 42 43 44 45 46 47 48 49 50
000
FTUS43 KABR 260900 AAA
TAFABR
TAF AMD
KABR 260909Z 2609/2706 02023G30KT 3SM -SN BLSN OVC035
     FM261100 36021G30KT 6SM -SN BR OVC025
     FM261300 35015G25KT P6SM OVC025
     FM261800 36007KT P6SM BKN040=

USA.gov is the U.S. government's official web portal to all federal, state and local government web resources and services.